Weather History for Shawano, WI

Change the Weather History Date:

Wednesday, October 31, 2012

  Actual Average (KGRB) Record (KGRB)
Temperature  
Mean Temperature 39 °F 42 °F  
Max Temperature 46 °F 50 °F 74 °F (1950)
Min Temperature 30 °F 33 °F 18 °F (1917)
Degree Days  
Heating Degree Days 26 23  
Month to date heating degree days 557  
Since 1 July heating degree days 826  
Cooling Degree Days 0 0  
Month to date cooling degree days 3  
Year to date cooling degree days 398  
Moisture  
Dew Point 26 °F    
Average Humidity 64    
Maximum Humidity 81    
Minimum Humidity 44    
Precipitation  
Precipitation 0.00 in 0.07 in 1.44 in (1960)
Month to date precipitation 2.44  
Year to date precipitation 25.88  
Snow  
Snow 0.00 in 0.00 in 1.00 in (1895)
Month to date snowfall 0.2  
Since 1 July snowfall 0.2  
Since 1 September snowfall 0.2  
Snow Depth -    
Sea Level Pressure  
Sea Level Pressure 29.84 in    
Wind  
Wind Speed 8 mph (NW)    
Max Wind Speed 16 mph    
Max Gust Speed 24 mph    
Visibility 10 miles    
Events      
T = Trace of Precipitation, MM = Missing Value Source: NWS Daily Summary

Daily Weather History Graph

Daily Weather History Graph

Search for Another Location

Airport:

Trip Planner

Search our weather history database for the weather conditions in past years. The results will help you decide how hot, cold, wet, or windy it might be!

Date:

Astronomy

Oct. 31, 2012 Rise Set
Actual Time 7:31 AM CDT 5:43 PM CDT
Civil Twilight 7:01 AM CDT 6:13 PM CDT
Nautical Twilight 6:26 AM CDT 6:48 PM CDT
Astronomical Twilight 5:52 AM CDT 7:22 PM CDT
Moon 6:49 PM CDT (10/31) 9:17 AM CDT (10/31)
Length of Visible Light 11h 12m
Length of Day
10h 11m
Full, 97% of the Moon is Illuminated
Oct 31
Full
Nov 6
Last Quarter
Nov 13
New
Nov 20
First Quarter
Nov 28
Full

Hourly Weather History & Observations

Time (CDT) Temp. Windchill Dew Point Humidity Pressure Visibility Wind Dir Wind Speed Gust Speed Precip Events Conditions
12:15 AM 35.6 °F 27.5 °F 23.0 °F 60% 29.86 in 10.0 mi NNW 11.5 mph - N/A   Clear
12:35 AM 35.6 °F 28.6 °F 23.0 °F 60% 29.86 in 10.0 mi NNW 9.2 mph 18.4 mph N/A   Clear
12:55 AM 33.8 °F 26.4 °F 23.0 °F 65% 29.86 in 10.0 mi North 9.2 mph - N/A   Clear
1:15 AM 33.8 °F 27.0 °F 23.0 °F 65% 29.86 in 10.0 mi North 8.1 mph - N/A   Clear
1:35 AM 33.8 °F 26.4 °F 23.0 °F 65% 29.85 in 10.0 mi NNW 9.2 mph - N/A   Clear
1:55 AM 33.8 °F 26.4 °F 23.0 °F 65% 29.85 in 10.0 mi NNW 9.2 mph - N/A   Clear
2:15 AM 33.8 °F 26.4 °F 23.0 °F 65% 29.86 in 10.0 mi North 9.2 mph - N/A   Clear
2:35 AM 33.8 °F 28.6 °F 23.0 °F 65% 29.86 in 10.0 mi NNW 5.8 mph - N/A   Clear
2:55 AM 33.8 °F 28.6 °F 23.0 °F 65% 29.86 in 10.0 mi NNW 5.8 mph - N/A   Clear
3:15 AM 33.8 °F 28.6 °F 23.0 °F 65% 29.86 in 10.0 mi NNW 5.8 mph - N/A   Clear
3:35 AM 32.0 °F 26.4 °F 23.0 °F 69% 29.85 in 10.0 mi NW 5.8 mph - N/A   Clear
3:55 AM 32.0 °F 26.4 °F 23.0 °F 69% 29.86 in 10.0 mi NW 5.8 mph - N/A   Clear
4:35 AM 32.0 °F 25.6 °F 24.8 °F 75% 29.85 in 10.0 mi NNW 6.9 mph - N/A   Clear
4:55 AM 32.0 °F 26.4 °F 24.8 °F 75% 29.85 in 10.0 mi NW 5.8 mph - N/A   Scattered Clouds
5:15 AM 32.0 °F 27.5 °F 24.8 °F 75% 29.85 in 10.0 mi NW 4.6 mph - N/A   Mostly Cloudy
5:35 AM 32.0 °F 25.6 °F 26.6 °F 80% 29.85 in 10.0 mi NW 6.9 mph - N/A   Mostly Cloudy
5:55 AM 32.0 °F 26.4 °F 26.6 °F 80% 29.85 in 10.0 mi NW 5.8 mph - N/A   Mostly Cloudy
6:15 AM 32.0 °F 26.4 °F 26.6 °F 80% 29.85 in 10.0 mi NW 5.8 mph - N/A   Mostly Cloudy
6:35 AM 32.0 °F 26.4 °F 26.6 °F 80% 29.85 in 10.0 mi NW 5.8 mph - N/A   Scattered Clouds
6:55 AM 33.8 °F 28.6 °F 26.6 °F 75% 29.85 in 10.0 mi NW 5.8 mph - N/A   Mostly Cloudy
7:15 AM 33.8 °F 27.7 °F 28.4 °F 81% 29.85 in 10.0 mi NW 6.9 mph - N/A   Overcast
7:35 AM 33.8 °F 28.6 °F 28.4 °F 81% 29.85 in 10.0 mi NW 5.8 mph - N/A   Overcast
7:55 AM 33.8 °F 29.6 °F 28.4 °F 81% 29.84 in 10.0 mi NW 4.6 mph - N/A   Overcast
8:15 AM 33.8 °F 28.6 °F 28.4 °F 81% 29.85 in 10.0 mi WNW 5.8 mph - N/A   Overcast
8:35 AM 33.8 °F 29.6 °F 28.4 °F 81% 29.84 in 10.0 mi NW 4.6 mph - N/A   Overcast
8:55 AM 35.6 °F 29.9 °F 28.4 °F 75% 29.84 in 10.0 mi NW 6.9 mph - N/A   Mostly Cloudy
9:15 AM 35.6 °F 29.9 °F 28.4 °F 75% 29.84 in 10.0 mi NW 6.9 mph - N/A   Mostly Cloudy
9:35 AM 37.4 °F 30.3 °F 28.4 °F 70% 29.84 in 10.0 mi NNW 10.4 mph 16.1 mph N/A   Overcast
9:55 AM 39.2 °F 33.0 °F 30.2 °F 70% 29.84 in 10.0 mi NNW 9.2 mph - N/A   Scattered Clouds
10:15 AM 41.0 °F 32.8 °F 28.4 °F 61% 29.84 in 10.0 mi NNW 16.1 mph - N/A   Scattered Clouds
10:35 AM 41.0 °F 34.7 °F 30.2 °F 65% 29.84 in 10.0 mi NNW 10.4 mph 18.4 mph N/A   Overcast
10:55 AM 41.0 °F 34.3 °F 28.4 °F 61% 29.84 in 10.0 mi North 11.5 mph 21.9 mph N/A   Overcast
11:15 AM 41.0 °F 35.2 °F 30.2 °F 65% 29.84 in 10.0 mi NNW 9.2 mph 18.4 mph N/A   Overcast
11:35 AM 42.8 °F 37.5 °F 30.2 °F 61% 29.84 in 10.0 mi NNW 9.2 mph - N/A   Overcast
11:55 AM 42.8 °F 36.6 °F 30.2 °F 61% 29.84 in 10.0 mi NNW 11.5 mph 19.6 mph N/A   Overcast
12:15 PM 44.6 °F 38.8 °F 30.2 °F 57% 29.84 in 10.0 mi NW 11.5 mph 17.3 mph N/A   Overcast
12:35 PM 44.6 °F 38.8 °F 30.2 °F 57% 29.83 in 10.0 mi NNW 11.5 mph 19.6 mph N/A   Overcast
12:55 PM 44.6 °F 38.1 °F 30.2 °F 57% 29.83 in 10.0 mi NNW 13.8 mph 23.0 mph N/A   Overcast
1:15 PM 44.6 °F 39.2 °F 30.2 °F 57% 29.82 in 10.0 mi NNW 10.4 mph 24.2 mph N/A   Overcast
1:55 PM 44.6 °F 37.4 °F 30.2 °F 57% 29.82 in 10.0 mi North 16.1 mph 21.9 mph N/A   Overcast
2:15 PM 44.6 °F 38.4 °F 30.2 °F 57% 29.82 in 10.0 mi NNW 12.7 mph 20.7 mph N/A   Overcast
2:35 PM 46.4 °F 41.5 °F 30.2 °F 53% 29.81 in 10.0 mi NNW 10.4 mph 17.3 mph N/A   Scattered Clouds
2:55 PM 46.4 °F 40.7 °F 30.2 °F 53% 29.80 in 10.0 mi NNW 12.7 mph 16.1 mph N/A   Clear
3:15 PM 46.4 °F 41.9 °F 30.2 °F 53% 29.81 in 10.0 mi NNW 9.2 mph 17.3 mph N/A   Clear
3:35 PM 46.4 °F 40.7 °F 30.2 °F 53% 29.80 in 10.0 mi NNW 12.7 mph - N/A   Clear
3:55 PM 46.4 °F 40.4 °F 28.4 °F 50% 29.80 in 10.0 mi NNW 13.8 mph 18.4 mph N/A   Clear
4:15 PM 46.4 °F 41.5 °F 30.2 °F 53% 29.81 in 10.0 mi NW 10.4 mph - N/A   Clear
4:35 PM 46.4 °F 41.1 °F 28.4 °F 50% 29.81 in 10.0 mi NNW 11.5 mph 16.1 mph N/A   Clear
4:55 PM 44.6 °F 39.2 °F 30.2 °F 57% 29.82 in 10.0 mi WNW 10.4 mph - N/A   Clear
5:15 PM 44.6 °F 40.2 °F 28.4 °F 53% 29.82 in 10.0 mi NW 8.1 mph - N/A   Clear
5:35 PM 42.8 °F 38.0 °F 28.4 °F 57% 29.83 in 10.0 mi NW 8.1 mph - N/A   Clear
5:55 PM 42.8 °F 38.6 °F 28.4 °F 57% 29.83 in 10.0 mi NW 6.9 mph - N/A   Clear
6:15 PM 41.0 °F 38.0 °F 28.4 °F 61% 29.83 in 10.0 mi NW 4.6 mph - N/A   Clear
6:35 PM 41.0 °F 38.0 °F 28.4 °F 61% 29.83 in 10.0 mi WNW 4.6 mph - N/A   Clear
6:55 PM 39.2 °F - 28.4 °F 65% 29.84 in 10.0 mi Calm Calm - N/A   Clear
7:15 PM 39.2 °F - 28.4 °F 65% 29.84 in 10.0 mi Calm Calm - N/A   Clear
7:35 PM 35.6 °F 32.8 °F 26.6 °F 70% 29.84 in 10.0 mi West 3.5 mph - N/A   Clear
7:55 PM 35.6 °F - 26.6 °F 70% 29.84 in 10.0 mi Calm Calm - N/A   Clear
8:15 PM 33.8 °F 30.8 °F 26.6 °F 75% 29.84 in 10.0 mi WNW 3.5 mph - N/A   Clear
8:35 PM 33.8 °F 28.6 °F 24.8 °F 70% 29.84 in 10.0 mi WNW 5.8 mph - N/A   Clear
8:55 PM 35.6 °F 28.6 °F 19.4 °F 52% 29.83 in 10.0 mi NW 9.2 mph - N/A   Clear
9:15 PM 35.6 °F 29.2 °F 17.6 °F 48% 29.84 in 10.0 mi NW 8.1 mph - N/A   Clear
9:35 PM 35.6 °F 32.8 °F 17.6 °F 48% 29.85 in 10.0 mi NNW 3.5 mph - N/A   Clear
9:55 PM 35.6 °F 32.8 °F 15.8 °F 44% 29.85 in 10.0 mi NNW 3.5 mph - N/A   Clear
10:15 PM 33.8 °F 30.8 °F 17.6 °F 52% 29.85 in 10.0 mi NW 3.5 mph - N/A   Clear
10:35 PM 33.8 °F - 17.6 °F 52% 29.85 in 10.0 mi Calm Calm - N/A   Clear
10:55 PM 33.8 °F - 15.8 °F 48% 29.85 in 10.0 mi Calm Calm - N/A   Clear
11:15 PM 32.0 °F - 17.6 °F 55% 29.84 in 10.0 mi Calm Calm - N/A   Clear
11:35 PM 32.0 °F - 17.6 °F 55% 29.84 in 10.0 mi Calm Calm - N/A   Clear
11:55 PM 30.2 °F - 19.4 °F 64% 29.84 in 10.0 mi Calm Calm - N/A   Clear